QPF
0.00 0.00 0.00 0.00 0.00 0.00 0.00 0.00 0.00 0.00 0.00 0.00 0.00 0.00 0.00 0.00 0.00 0.00 0.00 0.00 0.00 0.00 0.00 0.00 0.00 0.00 0.00 0.00 0.00 0.00 0.00 0.00 0.00 0.00 0.00 0.00 0.00 0.00 0.00 0.00 0.00 0.00 0.00 0.00
0.00 0.00 0.00 0.00 0.00 0.00 0.00 0.00 0.00 0.00 0.00 0.00 0.00 0.00 0.00 0.00 0.00 0.00 0.00 0.00 0.00 0.00 0.00 0.00 0.00 0.00 0.00 0.00 0.00 0.00 0.00 0.00 0.00 0.00 0.00 0.00 0.00 0.00 0.00 0.00 0.00 0.00 0.00 0.00
0.00 0.00 0.00 0.00 0.00 0.00 0.00 0.00 0.00 0.00 0.00 0.00 0.00 0.00 0.00 0.00 0.00 0.00 0.00 0.00 0.00 0.00 0.00 0.00 0.00 0.00 0.00 0.00 0.00 0.00 0.00 0.00 0.00 0.00 0.00 0.00 0.00 0.00 0.00 0.00 0.00 0.00 0.00 0.00
0.00 0.00 0.00 0.00 0.00 0.00 0.00 0.00 0.00 0.00 0.00 0.00 0.00 0.00 0.00 0.00 0.00 0.00 0.00 0.00 0.00 0.00 0.00 0.00 0.00 0.00 0.00 0.00 0.00 0.00 0.00 0.00 0.00 0.00 0.00 0.00 0.00 0.00 0.00 0.00 0.00 0.00 0.00 0.00
0.00 0.00 0.00 0.00 0.00 0.00 0.00 0.00 0.00 0.00 0.00 0.00 0.00 0.00 0.00 0.00 0.00 0.00 0.00 0.00 0.00 0.00 0.00 0.00 0.00 0.00 0.00 0.00 0.00 0.00 0.00 0.00 0.00 0.00 0.00 0.00 0.00 0.00 0.00 0.00 0.00 0.00 0.00 0.00
0.00 0.00 0.00 0.00 0.00 0.00 0.00 0.00 0.00 0.00 0.00 0.00 0.00 0.00 0.00 0.00 0.00 0.00 0.00 0.00 0.00 0.00 0.00 0.00 0.00 0.00 0.00 0.00 0.00 0.00 0.00 0.00 0.00 0.00 0.00 0.00 0.00 0.00 0.00 0.00 0.00 0.00 0.00 0.00
0.00 0.00 0.00 0.00 0.00 0.00 0.00 0.00 0.00 0.00 0.00 0.00 0.00 0.00 0.00 0.00 0.00 0.00 0.00 0.00 0.00 0.00 0.00 0.00 0.00 0.00 0.00 0.00 0.00 0.00 0.00 0.00 0.00 0.00 0.00 0.00 0.00 0.00 0.00 0.00 0.00 0.00 0.00 0.00
0.00 0.00 0.00 0.00 0.00 0.00 0.00 0.00 0.00 0.00 0.00 0.00 0.00 0.00 0.00 0.00 0.00 0.00 0.00 0.00 0.00 0.00 0.00 0.00 0.00 0.00 0.00 0.00 0.00 0.00 0.00 0.00 0.00 0.00 0.00 0.00 0.00 0.00 0.00 0.00 0.00 0.00 0.00 0.00
0.00 0.00 0.00 0.00 0.00 0.00 0.00 0.00 0.00 0.00 0.00 0.00 0.00 0.00 0.00 0.00 0.00 0.00 0.00 0.00 0.00 0.00 0.00 0.00 0.00 0.00 0.00 0.00 0.00 0.00 0.00 0.00 0.00 0.00 0.00 0.00 0.00 0.00 0.00 0.00 0.00 0.00 0.00 0.00
0.00 0.00 0.00 0.00 0.00 0.00 0.00 0.00 0.00 0.00 0.00 0.00 0.00 0.00 0.00 0.00 0.00 0.00 0.00 0.00 0.00 0.00 0.02 0.05 0.01 0.03 0.06 0.08 0.06 0.03 0.00 0.00 0.00 0.00 0.00 0.00 0.00 0.00 0.00 0.00 0.00 0.00 0.00 0.00
0.00 0.00 0.00 0.00 0.00 0.00 0.00 0.00 0.00 0.00 0.00 0.00 0.00 0.00 0.00 0.00 0.00 0.00 0.00 0.00 0.04 0.10 0.14 0.14 0.07 0.10 0.13 0.11 0.07 0.04 0.01 0.00 0.00 0.00 0.00 0.00 0.00 0.00 0.00 0.00 0.00 0.00 0.00 0.00
0.00 0.00 0.00 0.00 0.00 0.00 0.00 0.00 0.00 0.00 0.00 0.00 0.00 0.00 0.00 0.00 0.00 0.00 0.00 0.01 0.11 0.20 0.32 0.22 0.11 0.04 0.06 0.05 0.04 0.01 0.00 0.00 0.00 0.00 0.00 0.00 0.00 0.00 0.00 0.00 0.00 0.00 0.00 0.00
0.00 0.00 0.00 0.00 0.00 0.00 0.00 0.00 0.00 0.00 0.00 0.00 0.00 0.00 0.00 0.00 0.00 0.00 0.01 0.08 0.22 0.34 0.33 0.16 0.05 0.02 0.02 0.01 0.00 0.00 0.00 0.00 0.00 0.00 0.00 0.00 0.00 0.00 0.00 0.00 0.00 0.00 0.00 0.00
0.00 0.00 0.00 0.00 0.00 0.00 0.00 0.00 0.00 0.00 0.00 0.00 0.00 0.00 0.00 0.00 0.00 0.00 0.01 0.14 0.14 0.13 0.16 0.05 0.02 0.03 0.03 0.01 0.00 0.00 0.00 0.00 0.00 0.00 0.00 0.00 0.00 0.00 0.00 0.00 0.00 0.00 0.00 0.00
0.00 0.00 0.00 0.00 0.00 0.00 0.00 0.00 0.00 0.00 0.00 0.00 0.00 0.00 0.00 0.00 0.00 0.00 0.03 0.06 0.06 0.05 0.02 0.02 0.01 0.00 0.00 0.00 0.00 0.00 0.00 0.00 0.00 0.00 0.00 0.00 0.00 0.00 0.00 0.00 0.00 0.00 0.00 0.00
0.00 0.00 0.00 0.00 0.00 0.00 0.00 0.00 0.00 0.00 0.00 0.00 0.00 0.00 0.00 0.00 0.00 0.00 0.00 0.02 0.03 0.01 0.01 0.01 0.01 0.00 0.00 0.00 0.00 0.00 0.00 0.00 0.00 0.00 0.00 0.00 0.00 0.00 0.00 0.00 0.00 0.00 0.00 0.00
0.00 0.00 0.00 0.00 0.00 0.00 0.00 0.00 0.00 0.00 0.00 0.00 0.00 0.00 0.00 0.00 0.00 0.00 0.01 0.03 0.03 0.02 0.01 0.01 0.00 0.00 0.00 0.00 0.00 0.00 0.00 0.00 0.00 0.00 0.00 0.00 0.00 0.00 0.00 0.00 0.00 0.00 0.00 0.00
0.00 0.00 0.00 0.00 0.00 0.00 0.00 0.00 0.00 0.00 0.00 0.00 0.00 0.00 0.00 0.00 0.00 0.00 0.00 0.00 0.00 0.00 0.00 0.00 0.00 0.00 0.00 0.00 0.00 0.00 0.00 0.00 0.00 0.00 0.00 0.00 0.00 0.00 0.00 0.00 0.00 0.00 0.00 0.00
0.00 0.00 0.00 0.00 0.00 0.00 0.00 0.00 0.00 0.00 0.00 0.00 0.00 0.00 0.00 0.00 0.00 0.00 0.00 0.00 0.00 0.00 0.00 0.00 0.00 0.00 0.00 0.00 0.00 0.00 0.00 0.00 0.00 0.00 0.00 0.00 0.00 0.00 0.00 0.00 0.00 0.00 0.00 0.00
0.00 0.00 0.00 0.00 0.00 0.00 0.00 0.00 0.00 0.00 0.00 0.00 0.00 0.00 0.00 0.00 0.00 0.00 0.00 0.00 0.00 0.00 0.00 0.00 0.00 0.00 0.00 0.00 0.00 0.00 0.00 0.00 0.00 0.00 0.00 0.00 0.00 0.00 0.00 0.00 0.00 0.00 0.00 0.00
0.00 0.00 0.00 0.00 0.00 0.00 0.00 0.00 0.00 0.00 0.00 0.00 0.00 0.00 0.00 0.00 0.00 0.00 0.01 0.01 0.00 0.00 0.00 0.00 0.00 0.00 0.00 0.00 0.00 0.00 0.00 0.00 0.00 0.00 0.00 0.00 0.00 0.00 0.00 0.00 0.00 0.00 0.00 0.00
0.00 0.00 0.00 0.00 0.00 0.00 0.00 0.00 0.00 0.00 0.00 0.00 0.00 0.00 0.00 0.00 0.00 0.00 0.01 0.00 0.00 0.00 0.00 0.00 0.00 0.00 0.00 0.00 0.00 0.00 0.00 0.00 0.00 0.00 0.00 0.00 0.00 0.00 0.00 0.00 0.00 0.00 0.00 0.00
0.00 0.00 0.00 0.00 0.00 0.00 0.00 0.00 0.00 0.00 0.00 0.00 0.00 0.01 0.01 0.01 0.01 0.04 0.02 0.00 0.00 0.00 0.00 0.00 0.00 0.00 0.00 0.00 0.00 0.00 0.00 0.00 0.00 0.00 0.00 0.00 0.00 0.00 0.00 0.00 0.00 0.00 0.00 0.00
0.00 0.00 0.00 0.00 0.00 0.00 0.00 0.00 0.00 0.00 0.00 0.01 0.02 0.02 0.02 0.06 0.03 0.01 0.00 0.00 0.00 0.00 0.00 0.00 0.00 0.00 0.00 0.00 0.00 0.00 0.00 0.00 0.00 0.00 0.00 0.00 0.00 0.00 0.00 0.00 0.00 0.00 0.00 0.00
0.00 0.00 0.00 0.00 0.00 0.00 0.00 0.00 0.00 0.00 0.01 0.01 0.01 0.00 0.00 0.00 0.00 0.00 0.00 0.00 0.00 0.00 0.00 0.00 0.00 0.00 0.00 0.00 0.00 0.00 0.00 0.00 0.00 0.00 0.00 0.00 0.00 0.00 0.00 0.00 0.00 0.00 0.00 0.00
0.00 0.00 0.00 0.00 0.00 0.00 0.00 0.00 0.00 0.00 0.00 0.00 0.00 0.00 0.00 0.00 0.00 0.00 0.00 0.00 0.00 0.00 0.00 0.00 0.00 0.00 0.00 0.00 0.00 0.00 0.00 0.00 0.00 0.00 0.00 0.00 0.00 0.00 0.00 0.00 0.00 0.00 0.00 0.00
0.00 0.00 0.00 0.00 0.00 0.00 0.00 0.02 0.04 0.02 0.01 0.00 0.00 0.00 0.00 0.00 0.00 0.00 0.00 0.00 0.00 0.00 0.00 0.00 0.00 0.00 0.00 0.00 0.00 0.00 0.00 0.00 0.00 0.00 0.00 0.00 0.00 0.00 0.00 0.00 0.00 0.00 0.00 0.00
MSLP
997.88 997.46 997.33 997.15 997.48 997.50 997.46 997.26 996.73 996.22 995.84 996.05 996.14 996.48 997.41 998.62 1000.08 1001.06 1002.04 1003.04 1003.90 1005.08 1006.47 1007.09 1007.67 1008.32 1008.99 1009.52 1009.87 1010.28 1010.70 1011.10 1011.40 1011.80 1012.29 1012.72 1013.17 1013.49 1013.62 1013.76 1014.02 1014.07 1014.15 1014.32
997.55 997.40 997.44 996.97 996.73 996.52 996.80 997.04 996.83 996.79 996.16 996.05 995.81 996.98 997.56 998.24 999.51 1000.61 1001.63 1002.60 1003.68 1005.08 1006.23 1006.78 1007.54 1008.23 1008.91 1009.39 1009.83 1010.46 1010.89 1011.30 1011.85 1012.36 1012.75 1013.11 1013.46 1013.74 1014.03 1014.05 1014.08 1014.29 1014.49 1014.38
997.13 997.29 997.30 996.85 996.42 996.58 996.64 996.84 996.73 996.21 995.85 995.72 995.74 996.14 996.97 997.95 998.92 999.86 1000.79 1001.98 1003.29 1004.34 1005.25 1006.21 1007.02 1007.80 1008.52 1009.34 1010.06 1010.59 1010.91 1011.43 1012.01 1012.67 1013.14 1013.42 1013.68 1013.93 1014.13 1014.24 1014.50 1014.46 1014.55 1014.58
996.77 997.39 996.76 995.57 995.59 996.06 996.29 996.47 996.33 996.02 996.00 995.76 996.08 996.75 996.99 997.47 998.10 999.20 1000.13 1001.27 1002.60 1003.54 1004.71 1005.89 1006.83 1007.77 1008.59 1009.47 1010.10 1010.78 1011.32 1011.71 1012.23 1012.59 1012.93 1013.40 1013.98 1014.29 1014.46 1014.43 1014.51 1014.61 1014.88 1014.76
997.08 996.70 996.01 996.17 996.53 996.72 996.66 996.24 996.04 996.18 996.08 996.28 996.89 997.22 996.15 996.99 997.72 998.67 999.74 1000.72 1001.87 1003.01 1004.14 1005.54 1006.58 1007.60 1008.61 1009.50 1010.27 1010.67 1011.20 1011.72 1012.26 1012.78 1013.26 1013.56 1013.96 1014.29 1014.50 1014.56 1014.46 1014.20 1014.68 1014.71
997.01 996.50 995.66 995.74 996.42 997.49 997.39 996.62 996.63 997.08 996.98 997.15 997.20 996.64 996.62 997.32 997.59 998.21 999.51 1000.62 1001.60 1002.84 1004.02 1005.48 1006.42 1007.49 1008.60 1009.65 1010.16 1010.60 1011.31 1011.92 1012.54 1012.91 1013.41 1013.86 1014.27 1014.69 1014.68 1014.59 1014.64 1014.28 1014.69 1014.71
997.00 996.86 996.20 996.80 997.79 998.17 997.93 998.03 998.00 998.24 998.30 998.22 997.84 997.34 997.76 998.08 998.10 998.12 999.27 1000.39 1001.63 1002.85 1003.86 1005.10 1006.34 1007.41 1008.34 1009.54 1010.09 1010.67 1011.26 1012.04 1012.70 1013.25 1013.76 1014.27 1014.58 1014.62 1014.60 1014.54 1014.58 1014.82 1015.09 1014.94
997.78 997.44 997.36 997.95 998.59 998.37 998.86 998.73 999.01 999.18 999.22 999.09 998.77 998.38 998.24 998.44 998.68 998.80 999.54 1000.63 1001.87 1002.93 1004.07 1005.38 1006.42 1007.24 1008.22 1009.45 1010.26 1011.19 1011.87 1012.52 1013.10 1013.72 1013.58 1014.02 1014.34 1014.60 1014.67 1014.40 1014.47 1014.71 1014.90 1014.59
998.05 997.79 998.53 998.81 998.74 998.95 999.30 999.50 999.68 999.77 999.61 999.53 999.04 998.51 998.43 998.72 998.93 999.48 1000.42 1001.47 1002.30 1003.28 1004.47 1005.30 1006.24 1007.06 1008.51 1009.92 1010.94 1011.68 1012.08 1012.84 1013.34 1013.78 1013.84 1014.06 1014.09 1014.34 1014.28 1014.26 1013.99 1014.16 1014.13 1013.71
999.75 998.62 998.58 999.14 999.64 999.77 999.93 1000.06 1000.20 1000.03 999.84 999.58 999.17 998.87 998.74 999.15 999.34 999.92 1000.98 1001.91 1002.49 1003.73 1004.74 1005.49 1006.25 1007.35 1008.61 1009.69 1010.68 1011.51 1012.41 1013.01 1013.31 1013.33 1013.63 1013.80 1013.64 1013.76 1013.51 1013.46 1013.75 1013.94 1013.84 1013.57
999.92 999.55 999.50 999.73 1000.31 1000.35 1000.38 1000.49 1000.43 1000.19 999.97 999.69 999.44 999.02 999.09 999.46 999.83 1000.18 1001.11 1002.15 1003.11 1004.36 1005.52 1006.58 1007.30 1008.09 1009.31 1009.52 1010.16 1010.78 1011.97 1012.70 1012.93 1013.13 1013.36 1013.67 1013.73 1013.95 1013.80 1014.25 1014.45 1014.30 1014.08 1013.91
999.63 1000.33 1000.39 1000.14 1000.33 1000.63 1000.68 1000.65 1000.68 1000.55 1000.21 999.98 999.87 999.71 999.92 1000.10 1000.54 1001.21 1002.63 1003.36 1004.11 1005.84 1006.76 1007.65 1008.47 1008.02 1009.18 1009.88 1009.20 1010.23 1011.65 1012.32 1012.34 1012.70 1013.21 1013.27 1013.87 1014.38 1014.73 1014.74 1015.27 1015.25 1015.19 1014.98
1000.60 1000.62 1000.91 1001.00 1000.81 1000.67 1000.82 1000.85 1000.97 1000.72 1000.46 1000.27 1000.22 1000.14 1000.43 1001.04 1002.10 1003.28 1004.08 1004.85 1005.55 1006.32 1007.06 1007.94 1008.63 1010.60 1010.20 1009.77 1009.62 1010.77 1011.17 1012.05 1012.36 1012.49 1012.61 1013.08 1013.31 1013.33 1013.41 1014.81 1014.94 1014.85 1014.86 1015.22
1000.65 1000.68 1000.65 1000.32 1000.09 1000.06 1000.58 1000.73 1001.27 1000.85 1000.64 1000.64 1000.69 1000.93 1001.09 1001.91 1003.45 1003.67 1004.52 1005.43 1005.79 1006.65 1007.63 1007.90 1009.07 1009.81 1011.38 1011.18 1010.85 1010.99 1011.37 1012.25 1012.41 1012.20 1012.29 1012.67 1012.82 1013.01 1013.02 1013.19 1013.37 1013.54 1014.35 1014.45
1000.30 1000.30 1000.03 999.92 1000.01 1000.04 1000.42 1000.55 1000.52 1000.65 1000.72 1000.94 1001.19 1001.41 1001.87 1002.93 1003.80 1004.51 1005.00 1005.68 1006.06 1006.33 1006.79 1007.74 1010.66 1010.66 1010.40 1011.14 1011.72 1011.70 1011.85 1012.15 1012.15 1011.95 1012.23 1012.50 1012.74 1012.77 1012.79 1012.92 1012.95 1013.06 1013.02 1013.54
1000.25 1000.14 999.93 999.65 999.57 999.83 1000.06 1000.08 1000.07 1000.12 1000.75 1001.02 1001.51 1002.07 1002.64 1003.68 1004.64 1005.27 1006.00 1006.59 1006.85 1007.48 1008.83 1008.37 1009.53 1010.83 1010.81 1010.45 1011.86 1011.60 1012.16 1012.93 1012.54 1012.29 1012.36 1012.41 1012.57 1012.53 1012.31 1012.52 1012.58 1012.40 1012.47 1012.49
1000.27 999.84 999.48 999.40 999.22 999.20 999.25 999.44 999.54 999.88 1000.60 1001.15 1001.79 1002.59 1003.57 1004.24 1005.02 1005.60 1006.22 1006.94 1007.68 1008.18 1008.76 1009.39 1010.00 1010.46 1010.04 1009.58 1011.89 1011.40 1012.31 1012.61 1012.97 1012.21 1012.03 1012.14 1012.26 1012.35 1012.23 1012.26 1012.25 1012.14 1011.87 1011.93
1000.09 999.68 999.38 998.84 998.71 998.75 998.89 999.21 999.51 999.96 1000.61 1001.31 1002.20 1002.94 1003.71 1004.27 1004.87 1005.84 1006.69 1007.48 1008.07 1008.73 1009.16 1009.73 1010.46 1010.47 1010.62 1009.48 1011.83 1011.91 1011.81 1012.13 1012.17 1011.91 1012.17 1012.47 1012.24 1012.38 1012.34 1012.19 1012.08 1011.82 1011.49 1011.31
999.24 999.13 999.02 998.85 998.59 998.60 998.66 998.96 999.32 1000.04 1000.77 1001.78 1002.63 1003.35 1004.03 1004.74 1005.70 1006.54 1007.36 1007.90 1008.50 1008.83 1009.54 1010.02 1010.08 1010.53 1010.54 1010.77 1011.91 1011.74 1011.61 1011.79 1011.97 1011.91 1012.20 1012.62 1012.22 1012.25 1012.19 1012.01 1011.77 1011.54 1011.23 1010.80
999.10 998.72 998.65 998.48 998.46 998.47 998.60 999.10 999.74 1000.40 1001.29 1002.07 1002.70 1003.41 1004.37 1005.39 1006.69 1007.54 1008.12 1008.32 1008.53 1008.83 1009.55 1009.78 1009.82 1010.33 1010.97 1011.78 1011.88 1011.25 1011.47 1011.46 1011.58 1011.80 1012.15 1012.07 1012.11 1012.11 1012.06 1012.07 1011.81 1011.14 1010.76 1010.33
999.40 998.87 998.46 998.34 998.35 998.59 998.82 999.22 999.82 1000.46 1001.26 1002.05 1002.61 1003.52 1004.56 1006.04 1006.99 1007.48 1007.97 1008.61 1008.90 1009.14 1009.29 1009.90 1009.91 1010.36 1011.04 1011.49 1011.67 1010.99 1011.10 1011.38 1011.49 1011.68 1011.95 1011.95 1011.99 1011.83 1011.78 1011.50 1011.18 1010.79 1010.32 1009.89
999.52 999.13 998.67 998.35 998.34 998.56 998.89 999.34 999.80 1000.40 1001.09 1001.83 1002.67 1003.39 1004.57 1005.66 1006.79 1007.47 1007.72 1008.17 1008.91 1009.27 1009.48 1009.95 1010.15 1010.53 1010.69 1011.51 1010.89 1010.99 1010.98 1011.28 1011.48 1011.61 1011.73 1011.80 1011.77 1011.61 1011.46 1011.18 1010.81 1010.35 1009.95 1009.61
999.59 999.36 998.93 998.65 998.40 998.51 998.99 999.37 999.72 1000.29 1000.93 1001.85 1002.54 1003.52 1004.21 1005.00 1005.85 1006.62 1007.16 1007.41 1008.07 1008.84 1008.83 1009.42 1010.11 1010.83 1011.10 1011.16 1011.08 1011.03 1011.23 1011.33 1011.38 1011.41 1011.49 1011.64 1011.59 1011.55 1011.27 1010.93 1010.61 1010.07 1009.53 1009.28
999.74 999.54 999.27 999.08 998.81 998.79 998.89 999.12 999.52 1000.21 1000.97 1001.63 1002.12 1003.06 1003.62 1004.75 1005.57 1005.92 1006.00 1007.38 1007.97 1008.62 1008.42 1009.61 1010.43 1010.92 1011.12 1010.90 1011.09 1011.18 1011.17 1011.31 1011.34 1011.43 1011.64 1012.15 1011.71 1011.40 1011.06 1010.55 1010.12 1009.62 1009.37 1009.13
999.79 999.51 999.27 999.08 998.89 998.67 998.92 999.25 999.62 1000.13 1000.88 1001.33 1002.13 1002.82 1003.32 1004.06 1004.35 1004.73 1005.79 1006.86 1008.24 1008.31 1008.66 1009.91 1010.42 1010.87 1010.94 1010.75 1010.74 1011.03 1011.18 1011.28 1011.38 1011.48 1011.42 1011.28 1011.09 1010.94 1010.73 1010.22 1009.75 1009.47 1009.34 1009.01
999.74 999.22 999.01 999.16 999.03 998.99 999.16 999.72 999.69 1000.02 1000.63 1000.98 1001.47 1002.14 1002.78 1003.34 1003.81 1004.78 1005.48 1006.52 1007.41 1007.83 1008.21 1009.66 1010.13 1010.68 1010.17 1010.21 1010.46 1010.80 1010.98 1011.05 1011.31 1011.41 1011.40 1011.10 1010.85 1010.56 1010.14 1009.73 1009.38 1009.16 1009.02 1008.87
999.57 999.91 999.39 999.44 999.63 999.94 1000.06 1000.34 1000.36 1000.09 1000.43 1000.57 1000.78 1001.66 1002.29 1002.96 1003.96 1004.54 1005.42 1006.27 1006.90 1007.36 1007.91 1008.86 1009.54 1010.14 1009.65 1009.88 1010.28 1010.45 1010.67 1010.76 1010.90 1010.75 1010.73 1010.58 1010.32 1010.03 1009.67 1009.39 1009.17 1008.96 1008.86 1008.85
Thickness
5807 5815 5817 5819 5815 5820 5814 5824 5814 5832 5837 5847 5860 5864 5864 5861 5851 5844 5838 5834 5830 5821 5809 5806 5801 5795 5791 5786 5783 5779 5772 5767 5762 5759 5755 5749 5742 5736 5732 5728 5724 5720 5716 5711
5794 5811 5809 5805 5820 5830 5826 5824 5823 5823 5826 5861 5873 5863 5857 5857 5849 5842 5838 5835 5830 5818 5809 5806 5799 5792 5787 5783 5780 5774 5767 5761 5756 5750 5744 5738 5732 5727 5722 5719 5715 5709 5703 5702
5781 5803 5799 5785 5810 5815 5822 5827 5824 5811 5839 5862 5859 5861 5858 5855 5852 5847 5843 5837 5827 5820 5815 5808 5801 5794 5786 5780 5776 5768 5763 5756 5749 5740 5734 5728 5724 5721 5716 5711 5705 5701 5697 5693
5794 5790 5757 5820 5845 5838 5826 5828 5836 5837 5843 5854 5854 5856 5862 5865 5858 5851 5847 5840 5830 5825 5816 5806 5799 5790 5785 5777 5770 5761 5753 5748 5742 5737 5731 5725 5718 5711 5705 5702 5697 5691 5686 5685
5777 5783 5809 5812 5818 5816 5812 5819 5841 5832 5840 5845 5847 5847 5860 5863 5863 5855 5849 5844 5836 5829 5819 5806 5797 5790 5780 5771 5763 5756 5749 5743 5737 5731 5724 5719 5712 5705 5698 5694 5691 5691 5681 5677
5788 5774 5772 5816 5827 5828 5826 5799 5835 5829 5829 5830 5837 5826 5843 5855 5859 5857 5850 5842 5834 5826 5816 5803 5796 5787 5774 5762 5756 5749 5743 5736 5730 5725 5717 5709 5701 5693 5689 5686 5681 5680 5672 5670
5783 5777 5802 5816 5815 5819 5783 5797 5821 5821 5819 5820 5820 5835 5842 5849 5851 5857 5848 5840 5833 5822 5810 5800 5792 5781 5769 5757 5749 5746 5739 5731 5722 5715 5707 5698 5691 5687 5684 5681 5674 5666 5658 5658
5773 5765 5761 5809 5799 5789 5800 5814 5812 5812 5813 5812 5820 5829 5836 5839 5840 5843 5838 5831 5823 5812 5803 5794 5785 5775 5764 5749 5745 5735 5727 5719 5711 5704 5702 5694 5686 5681 5677 5673 5666 5659 5652 5652
5775 5780 5791 5797 5798 5807 5806 5801 5803 5805 5811 5812 5816 5824 5831 5829 5832 5831 5824 5818 5815 5804 5792 5787 5779 5771 5753 5740 5731 5723 5718 5709 5702 5696 5693 5688 5683 5675 5670 5666 5663 5655 5649 5648
5754 5781 5783 5785 5788 5793 5795 5794 5797 5803 5807 5811 5811 5818 5822 5823 5824 5820 5814 5807 5806 5793 5782 5775 5770 5760 5747 5736 5728 5716 5705 5700 5696 5693 5687 5682 5679 5671 5670 5666 5658 5649 5643 5641
5749 5763 5769 5769 5771 5777 5781 5786 5789 5797 5802 5804 5808 5813 5815 5813 5814 5813 5807 5802 5794 5779 5768 5758 5752 5743 5733 5729 5720 5714 5702 5697 5693 5687 5680 5672 5668 5662 5660 5652 5644 5640 5637 5632
5740 5746 5749 5755 5765 5769 5769 5773 5778 5781 5787 5796 5799 5801 5803 5802 5803 5800 5787 5783 5774 5758 5751 5741 5729 5727 5726 5722 5724 5713 5699 5691 5689 5681 5673 5667 5659 5652 5641 5636 5625 5620 5616 5612
5735 5746 5743 5747 5755 5761 5758 5763 5769 5773 5778 5781 5787 5791 5792 5788 5783 5771 5768 5761 5753 5749 5741 5731 5725 5702 5705 5714 5715 5702 5696 5686 5680 5674 5670 5662 5656 5651 5647 5629 5619 5615 5610 5599
5737 5737 5732 5743 5745 5757 5754 5756 5754 5763 5769 5771 5773 5777 5780 5774 5761 5763 5756 5747 5747 5740 5732 5726 5714 5708 5695 5694 5693 5691 5687 5674 5672 5671 5667 5660 5652 5645 5642 5635 5627 5622 5605 5596
5730 5736 5739 5745 5747 5748 5749 5749 5750 5752 5757 5758 5763 5764 5763 5754 5750 5746 5744 5739 5736 5735 5730 5720 5693 5694 5695 5686 5675 5675 5675 5671 5669 5668 5662 5651 5644 5640 5635 5628 5621 5614 5606 5594
5727 5729 5733 5734 5736 5737 5739 5743 5745 5750 5749 5751 5750 5749 5748 5740 5733 5730 5726 5721 5717 5713 5702 5707 5697 5683 5682 5683 5666 5668 5664 5654 5657 5659 5651 5644 5639 5633 5630 5621 5614 5608 5601 5592
5714 5716 5724 5724 5730 5734 5738 5744 5748 5748 5745 5743 5740 5738 5728 5725 5720 5718 5715 5710 5704 5700 5694 5688 5682 5679 5679 5685 5659 5664 5654 5653 5646 5651 5647 5641 5635 5627 5622 5615 5608 5601 5596 5586
5719 5723 5727 5732 5733 5734 5736 5739 5740 5741 5737 5736 5731 5726 5719 5716 5711 5705 5699 5694 5690 5684 5680 5674 5667 5666 5663 5676 5652 5651 5652 5649 5648 5647 5640 5631 5628 5620 5614 5608 5602 5596 5590 5583
5722 5721 5725 5728 5733 5733 5735 5735 5736 5735 5732 5725 5717 5712 5709 5704 5696 5688 5682 5678 5672 5669 5664 5659 5659 5654 5654 5658 5644 5646 5647 5644 5642 5641 5633 5620 5621 5614 5608 5603 5597 5591 5585 5581
5716 5722 5725 5728 5732 5732 5731 5732 5730 5726 5721 5715 5710 5703 5696 5689 5677 5668 5662 5658 5661 5661 5656 5654 5655 5651 5648 5640 5639 5646 5642 5642 5640 5635 5627 5622 5615 5609 5603 5593 5590 5588 5583 5581
5712 5718 5722 5724 5727 5728 5730 5728 5724 5720 5716 5712 5706 5698 5691 5675 5665 5658 5648 5646 5648 5649 5650 5647 5651 5648 5643 5639 5638 5643 5641 5638 5635 5629 5621 5616 5611 5606 5599 5596 5591 5587 5584 5581
5709 5713 5718 5722 5723 5723 5725 5723 5722 5719 5713 5708 5702 5697 5685 5675 5663 5656 5654 5649 5645 5644 5646 5645 5646 5643 5643 5635 5642 5639 5639 5634 5629 5624 5618 5613 5607 5602 5598 5594 5590 5586 5583 5579
5706 5709 5715 5717 5719 5720 5721 5719 5719 5714 5709 5703 5697 5688 5682 5677 5670 5660 5654 5659 5653 5647 5650 5648 5642 5637 5636 5637 5636 5636 5633 5628 5624 5620 5615 5609 5605 5600 5597 5593 5588 5585 5583 5579
5701 5704 5707 5711 5716 5716 5713 5717 5718 5713 5706 5701 5698 5691 5686 5673 5668 5669 5668 5656 5652 5648 5652 5643 5638 5634 5632 5636 5633 5631 5628 5623 5619 5615 5610 5601 5601 5598 5596 5593 5590 5588 5584 5579
5695 5699 5702 5705 5707 5711 5713 5713 5713 5708 5701 5698 5694 5689 5687 5682 5678 5677 5668 5659 5648 5650 5648 5636 5634 5631 5632 5633 5632 5627 5622 5617 5614 5611 5609 5606 5603 5599 5595 5594 5592 5588 5583 5580
5689 5696 5700 5700 5703 5706 5708 5704 5705 5705 5700 5697 5696 5693 5689 5686 5683 5674 5668 5660 5654 5651 5650 5638 5636 5631 5635 5634 5629 5623 5619 5615 5611 5609 5606 5604 5603 5600 5597 5596 5594 5590 5584 5580
5684 5675 5691 5691 5693 5691 5691 5690 5692 5697 5696 5698 5696 5692 5688 5683 5675 5672 5665 5659 5655 5652 5649 5641 5636 5630 5635 5631 5626 5622 5616 5614 5612 5611 5609 5606 5604 5602 5600 5598 5595 5591 5586 5580